Home   Weather   Ottawa   Past weeks
Flag for Canada

Past Weather in Ottawa, Ontario, Canada — Yesterday and Last 2 Weeks

Now
37 °F

Light rain. Fog.


Feels Like: 32 °F
Forecast: 44 / 36 °F
Wind: 7 mph from Northeast

Location: Ottawa Int'L. Ont.

Current Time: Apr 9, 2020 at 10:46:30 am

Latest Report: Apr 9, 2020 at 10:00 am


Visibility: 3 mi

Pressure: 29.24 "Hg

Humidity: 100%

Dew Point: 37 °F

Location of OttawaLocation

Past Weather in Ottawa — Graph

°F

Ottawa Temperature Yesterday

Maximum temperature yesterday: 46 °F (at 4:00 pm)
Minimum temperature yesterday: 34 °F (at 5:00 am)
Average temperature yesterday: 40 °F

High & Low Weather Summary for the Past Weeks

 TemperatureHumidityPressure
High57 °F (Apr 4, 3:00 pm)100% (Mar 29, 11:16 am)30.16 "Hg (Mar 29, 11:16 am)
Low23 °F (Mar 28, 7:00 am)21% (Apr 6, 4:00 pm)29.28 "Hg (Apr 9, 8:34 am)
Average41 °F70%29.92 "Hg
* Reported Mar 25 8:00 am — Apr 9 8:34 am, Ottawa. Weather by CustomWeather, © 2020

Note: Actual official high and low records may vary slightly from our data, if they occured in-between our weather recording intervals... More about our weather records

Ottawa Weather History for the Previous 24 Hours

Scroll right to see more
 ConditionsComfort  
Time TempWeatherWind HumidityBarometerVisibility
8:34 am
Thu, Apr 9
39 °FLight rain. Fog.8 mph100%29.28 "Hg4 mi
8:00 am39 °FLight rain. Fog.3 mph100%29.32 "Hg3 mi
7:45 am39 °FLight rain. Fog.3 mph93%29.32 "Hg6 mi
7:00 am39 °FLight rain. Mostly cloudy.No wind93%29.35 "Hg15 mi
6:00 am41 °FLight rain. Mostly cloudy.5 mph87%29.37 "Hg15 mi
5:00 am41 °FOvercast.6 mph87%29.40 "Hg15 mi
4:00 am41 °FMostly cloudy.6 mph81%29.45 "Hg15 mi
3:00 am41 °FOvercast.6 mph70%29.46 "Hg15 mi
2:00 am41 °FMostly cloudy.5 mph70%29.49 "Hg15 mi
1:00 am41 °FPassing clouds.3 mph57%29.53 "Hg15 mi
12:47 am41 °FPartly cloudy.5 mph57%29.54 "Hg15 mi
12:16 am43 °FOvercast.5 mph53%29.54 "Hg15 mi
12:00 am43 °FOvercast.5 mph53%29.55 "Hg15 mi
11:00 pm
Wed, Apr 8
43 °FMostly cloudy.7 mph53%29.58 "Hg15 mi
10:00 pm43 °FOvercast.6 mph49%29.61 "Hg15 mi
9:00 pm43 °FPassing clouds.No wind46%29.62 "Hg15 mi
8:00 pm43 °FMostly cloudy.5 mph49%29.61 "Hg15 mi
7:00 pm45 °FMostly cloudy.No wind42%29.62 "Hg15 mi
6:00 pm46 °FOvercast.2 mph40%29.62 "Hg15 mi
5:00 pm46 °FOvercast.2 mph37%29.62 "Hg15 mi
4:00 pm46 °FPartly sunny.2 mph37%29.63 "Hg15 mi
3:00 pm45 °FMostly cloudy.6 mph39%29.64 "Hg15 mi
2:00 pm45 °FPartly sunny.3 mph42%29.66 "Hg15 mi
1:00 pm43 °FPartly sunny.7 mph46%29.66 "Hg15 mi
12:00 pm39 °FPartly sunny.7 mph48%29.67 "Hg15 mi
11:00 am37 °FPartly sunny.12 mph52%29.67 "Hg15 mi
10:00 am37 °FMostly cloudy.10 mph52%29.67 "Hg15 mi
Weather by CustomWeather, © 2020

See weather overview

Advertising